Snowfall_Accumulation
0.0 0.0 0.0 0.0 0.0 0.0 0.0 0.0 0.0 0.0 0.0 0.0 0.0 0.0 0.0 0.0 0.0 0.0 0.0 0.0 0.0 0.0 0.0 0.0 0.0 0.0 0.0 0.0 0.0 0.0 0.0 0.0 0.0 0.0 0.0 0.0 0.0 0.0 0.0 0.0 0.0 0.0 0.0
0.0 0.0 0.0 0.0 0.0 0.0 0.0 0.0 0.0 0.0 0.0 0.0 0.0 0.0 0.0 0.0 0.0 0.0 0.0 0.0 0.0 0.0 0.0 0.0 0.0 0.0 0.0 0.0 0.0 0.0 0.0 0.0 0.0 0.0 0.0 0.0 0.0 0.0 0.0 0.0 0.0 0.0 0.0
0.0 0.0 0.0 0.0 0.0 0.0 0.0 0.0 0.0 0.0 0.0 0.0 0.0 0.0 0.0 0.0 0.0 0.0 0.0 0.0 0.0 0.0 0.0 0.0 0.0 0.0 0.0 0.0 0.0 0.0 0.0 0.0 0.0 0.2 0.4 0.1 0.0 0.0 0.0 0.0 0.0 0.0 0.0
0.0 0.0 0.0 0.0 0.0 0.0 0.0 0.0 0.0 0.0 0.0 0.0 0.0 0.0 0.0 0.0 0.0 0.0 0.0 0.0 0.0 0.0 0.0 0.0 0.0 0.0 0.0 0.0 0.0 0.0 0.0 0.0 0.0 0.2 0.4 0.5 0.4 0.3 0.1 0.2 0.2 0.1 0.0
0.0 0.0 0.0 0.0 0.0 0.0 0.0 0.0 0.0 0.0 0.0 0.0 0.0 0.0 0.0 0.0 0.0 0.0 0.0 0.0 0.0 0.0 0.0 0.0 0.0 nan nan nan 0.0 0.0 0.0 0.1 0.3 0.4 0.7 0.8 1.1 1.0 0.6 0.6 0.4 0.3 0.2
0.0 0.0 0.0 0.0 0.0 0.0 0.0 0.0 0.0 0.0 0.0 0.0 0.0 0.0 0.0 0.0 nan nan 0.0 0.0 0.0 0.0 0.0 0.0 0.0 0.0 0.0 nan nan nan nan 0.0 0.0 0.4 0.6 0.6 0.2 0.8 0.7 0.6 0.6 0.7 1.6
0.0 0.0 0.0 0.0 0.0 0.0 0.0 0.0 0.0 0.0 0.0 0.0 0.0 0.0 0.0 0.0 nan nan nan 0.0 0.0 0.0 0.0 0.0 0.0 0.0 nan 0.0 nan nan nan nan 0.0 0.0 0.0 0.1 0.1 0.0 0.1 0.1 0.1 0.3 0.5
0.0 0.0 0.0 0.0 0.0 0.0 0.0 0.0 0.0 0.0 0.0 0.0 0.0 0.0 0.0 0.0 nan nan nan 0.0 0.0 0.0 0.0 0.0 0.0 0.0 0.0 0.0 0.0 0.0 0.0 0.0 0.0 0.0 0.0 0.0 0.0 0.0 0.0 0.0 0.0 0.0 0.2
0.0 0.0 0.0 0.0 0.0 0.0 0.0 0.0 0.0 0.0 0.1 0.0 0.0 0.0 0.0 0.0 nan nan 0.0 0.0 0.0 0.0 0.0 0.0 0.0 0.0 nan nan 0.0 0.0 0.0 0.0 nan nan nan nan nan nan nan 0.3 1.0 2.3 3.3
0.0 0.0 0.0 0.0 0.0 0.0 0.0 0.0 0.0 0.0 0.0 0.3 0.0 0.0 nan 0.0 nan nan nan 0.0 0.1 0.4 0.1 0.0 nan 0.0 nan nan 0.0 0.0 0.1 0.1 0.1 0.1 0.1 0.0 nan nan nan 0.0 0.4 0.7 1.1
0.0 0.0 0.0 0.0 0.0 0.0 0.0 0.0 0.0 0.0 0.0 0.1 0.1 0.1 0.1 0.0 0.0 nan nan 0.1 0.6 0.8 0.8 0.9 0.5 nan nan nan nan 0.0 0.1 0.3 2.7 2.5 2.3 1.9 0.8 0.5 1.0 0.6 0.2 0.6 1.4
0.0 0.0 0.0 0.0 0.0 0.0 0.0 0.0 0.0 0.1 0.1 0.3 0.3 0.9 1.0 0.1 nan nan nan nan nan 0.9 1.4 1.8 2.0 nan nan nan 0.9 nan nan 0.9 4.1 6.4 7.0 6.7 5.0 4.1 2.0 1.2 0.2 0.5 0.9
0.0 0.0 0.0 0.0 0.0 0.0 0.1 0.1 0.6 0.2 0.8 0.5 1.3 1.4 1.3 1.0 0.9 nan nan nan nan 2.1 2.1 2.8 nan nan nan 0.0 nan nan 2.1 4.8 7.7 11.3 9.8 7.8 4.6 3.3 2.8 4.3 3.4 3.1 2.9
0.0 0.0 0.0 0.0 0.1 0.1 0.4 0.5 0.9 1.1 1.4 1.4 1.7 2.0 1.7 1.6 1.4 1.4 1.6 1.4 nan 2.5 0.8 3.1 2.0 2.1 1.5 2.8 4.0 4.3 4.8 5.6 7.5 9.0 8.9 7.1 6.0 7.2 6.7 3.6 5.6 5.8 7.4
0.0 0.0 0.0 0.0 0.0 0.2 0.2 0.5 0.9 0.5 1.4 2.5 2.5 2.6 4.1 5.3 3.4 1.5 1.8 2.0 2.1 1.6 1.3 2.6 4.2 4.2 5.6 5.8 5.7 5.8 5.5 6.1 7.8 7.4 7.9 7.4 6.2 4.7 4.8 3.1 3.4 4.5 5.3
0.0 0.1 0.4 0.7 0.7 0.9 1.5 2.4 nan nan nan nan nan 2.3 3.1 nan nan nan nan nan nan nan 3.7 6.4 10.2 9.8 8.1 6.8 6.3 6.0 4.1 3.5 3.4 3.6 4.2 3.8 4.4 4.6 4.4 3.7 2.8 3.0 5.0
0.4 0.5 1.2 1.4 1.6 1.9 2.3 2.8 5.0 3.0 nan nan nan nan nan nan nan nan nan nan nan nan 3.7 4.2 7.3 8.0 4.5 3.3 3.5 3.0 4.9 3.4 1.5 2.5 2.9 3.4 3.6 3.1 3.7 3.6 4.1 3.5 4.7
0.8 0.5 1.8 2.2 2.7 2.9 2.6 2.7 3.3 4.3 5.8 5.1 nan nan nan nan nan nan nan nan 2.7 nan 1.8 2.6 4.0 3.7 1.8 2.1 2.6 3.6 3.9 4.4 4.5 4.2 4.6 5.3 5.7 5.0 5.6 4.3 3.3 4.6 3.4
1.0 1.6 1.7 1.7 1.9 2.0 2.0 2.1 2.5 3.5 3.9 3.4 2.8 1.7 1.5 nan nan nan nan 2.5 3.2 2.1 1.6 1.7 2.1 1.8 2.0 1.8 4.1 4.7 5.4 5.7 6.3 10.1 6.8 6.7 10.8 4.2 5.0 3.2 3.0 2.9 3.2
1.1 0.3 1.0 1.6 1.9 1.9 1.9 2.4 2.7 3.3 3.5 3.6 3.7 3.0 3.2 2.5 7.8 12.0 7.1 9.1 5.8 2.7 2.4 1.5 1.4 1.5 2.0 2.1 4.5 7.9 8.0 7.7 6.7 5.8 10.1 13.4 11.1 5.3 6.4 5.5 5.8 7.1 3.8
1.3 1.5 0.1 1.0 1.2 1.7 1.9 2.4 2.3 2.8 3.0 3.0 3.6 5.0 0.4 1.9 3.8 3.7 3.4 4.5 3.0 2.2 3.6 1.6 1.9 2.6 2.6 3.0 2.0 4.0 2.1 9.5 4.1 4.8 5.0 5.9 20.9 10.7 4.4 3.8 4.3 3.1 3.1
1.3 1.3 1.4 2.0 1.4 1.8 1.7 1.4 2.2 2.5 2.5 2.7 3.0 3.1 2.0 3.2 2.5 2.4 2.5 4.8 7.6 2.4 1.9 2.3 1.9 1.7 1.7 2.0 2.3 7.7 6.6 9.7 7.3 6.0 5.6 6.4 5.7 6.0 5.1 5.1 6.2 6.2 4.6
1.2 2.0 1.8 1.7 1.3 3.7 2.6 1.7 2.5 2.9 2.4 2.9 2.4 3.8 3.4 3.9 4.3 3.1 4.0 6.5 2.9 3.5 2.7 2.2 4.6 3.1 2.6 3.8 3.1 2.4 4.6 4.4 4.4 5.4 8.5 8.3 6.0 6.7 8.5 6.3 4.9 5.8 6.0
1.6 2.3 1.9 2.3 3.0 1.9 3.1 5.0 3.0 4.6 2.3 3.6 7.2 6.5 4.6 3.6 9.9 8.2 8.3 10.1 6.1 8.1 8.0 8.5 3.3 2.5 2.6 8.2 4.7 3.5 2.5 4.6 3.7 4.2 4.0 7.0 5.9 4.4 6.6 6.2 5.4 5.6 6.2
3.1 4.9 4.5 3.3 3.2 5.2 7.5 4.6 5.7 6.1 5.7 7.3 9.8 7.4 3.0 5.7 5.0 12.3 9.3 6.9 6.8 10.5 5.4 7.3 6.0 3.8 4.7 4.5 4.0 1.7 2.5 3.9 5.2 4.4 5.6 3.4 5.4 6.4 6.7 5.9 7.9 6.5 6.2
2.0 2.2 3.4 3.9 4.5 6.8 7.4 11.0 9.9 7.8 8.2 8.9 9.1 10.6 7.0 5.4 4.8 10.5 8.1 7.8 7.4 7.2 6.4 6.6 5.4 4.3 4.1 3.9 2.7 5.2 5.6 5.1 9.1 5.2 8.7 5.0 8.1 8.3 7.5 6.3 5.5 6.7 4.3
Water_Equivalent
0.00 0.00 0.00 0.00 0.00 0.00 0.00 0.00 0.00 0.00 0.00 0.00 0.00 0.00 0.00 0.00 0.00 0.00 0.00 0.00 0.00 0.00 0.00 0.00 0.00 0.00 0.00 0.00 0.00 0.00 0.00 0.00 0.00 0.00 0.00 0.00 0.00 0.00 0.00 0.00 0.00 0.00 0.00
0.00 0.00 0.00 0.00 0.00 0.00 0.00 0.00 0.00 0.00 0.00 0.00 0.00 0.00 0.00 0.00 0.00 0.00 0.00 0.00 0.00 0.00 0.00 0.00 0.00 0.00 0.00 0.00 0.00 0.00 0.00 0.00 0.00 0.01 0.00 0.01 0.00 0.00 0.00 0.00 0.00 0.00 0.00
0.00 0.00 0.00 0.00 0.00 0.00 0.00 0.00 0.00 0.00 0.00 0.00 0.00 0.00 0.00 0.00 0.00 0.00 0.00 0.00 0.00 0.00 0.00 0.00 0.00 0.00 0.00 0.00 0.00 0.00 0.00 0.00 0.00 0.06 0.14 0.03 0.01 0.00 0.00 0.00 0.00 0.00 0.00
0.00 0.00 0.00 0.00 0.00 0.00 0.00 0.00 0.00 0.00 0.00 0.00 0.00 0.00 0.00 0.00 0.00 0.00 0.00 0.00 0.00 0.00 0.00 0.00 0.00 0.00 0.00 0.00 0.00 0.00 0.00 0.01 0.02 0.08 0.15 0.17 0.14 0.12 0.06 0.08 0.08 0.04 0.01
0.00 0.00 0.00 0.00 0.00 0.00 0.00 0.00 0.00 0.00 0.00 0.00 0.00 0.00 0.00 0.00 0.00 0.00 0.00 0.00 0.00 0.00 0.00 0.00 0.00 nan nan nan 0.00 0.01 0.00 0.04 0.11 0.14 0.24 0.27 0.34 0.29 0.18 0.21 0.15 0.11 0.07
0.00 0.00 0.00 0.00 0.00 0.00 0.00 0.00 0.00 0.00 0.00 0.00 0.00 0.00 0.00 0.00 nan nan 0.00 0.00 0.00 0.00 0.00 0.00 0.00 0.00 0.00 nan nan nan nan 0.00 0.01 0.12 0.18 0.16 0.05 0.22 0.21 0.19 0.21 0.22 0.46
0.00 0.00 0.00 0.00 0.00 0.00 0.00 0.00 0.00 0.00 0.00 0.00 0.00 0.00 0.00 0.00 nan nan nan 0.00 0.00 0.00 0.00 0.00 0.00 0.00 nan 0.00 nan nan nan nan 0.00 0.00 0.01 0.04 0.03 0.01 0.01 0.03 0.02 0.09 0.16
0.00 0.00 0.00 0.00 0.00 0.00 0.00 0.00 0.01 0.01 0.00 0.00 0.00 0.00 0.00 0.00 nan nan nan 0.00 0.00 0.00 0.00 0.00 0.00 0.00 0.00 0.00 0.00 0.00 0.00 0.00 0.00 0.00 0.00 0.00 0.00 0.00 0.00 0.00 0.01 0.01 0.07
0.01 0.01 0.01 0.01 0.01 0.01 0.01 0.01 0.01 0.01 0.02 0.02 0.01 0.00 0.00 0.00 nan nan 0.00 0.00 0.00 0.01 0.00 0.00 0.00 0.00 nan nan 0.00 0.00 0.01 0.01 nan nan nan nan nan nan nan 0.11 0.36 0.75 0.99
0.01 0.01 0.01 0.01 0.01 0.01 0.01 0.01 0.01 0.01 0.01 0.09 0.01 0.01 nan 0.00 nan nan nan 0.00 0.02 0.14 0.02 0.00 nan 0.00 nan nan 0.00 0.00 0.03 0.03 0.03 0.02 0.02 0.02 nan nan nan 0.02 0.14 0.25 0.36
0.00 0.01 0.01 0.01 0.01 0.00 0.01 0.01 0.01 0.01 0.01 0.05 0.04 0.03 0.03 0.01 0.01 nan nan 0.05 0.21 0.27 0.26 0.28 0.17 nan nan nan nan 0.00 0.02 0.11 0.84 0.77 0.76 0.60 0.28 0.16 0.33 0.18 0.05 0.20 0.43
0.00 0.00 0.01 0.01 0.00 0.00 0.01 0.01 0.01 0.02 0.03 0.07 0.08 0.25 0.33 0.03 nan nan nan nan nan 0.30 0.44 0.61 0.70 nan nan nan 0.30 nan nan 0.29 1.35 1.92 2.08 1.95 1.45 1.19 0.61 0.39 0.06 0.14 0.27
0.00 0.00 0.00 0.01 0.00 0.00 0.02 0.03 0.17 0.03 0.19 0.10 0.29 0.32 0.33 0.28 0.27 nan nan nan nan 0.66 0.73 0.99 nan nan nan 0.00 nan nan 0.69 1.51 2.24 2.98 2.58 2.11 1.35 0.96 0.87 1.32 1.05 1.06 1.07
0.00 0.00 0.00 0.01 0.02 0.02 0.11 0.15 0.22 0.26 0.32 0.30 0.35 0.43 0.38 0.38 0.34 0.37 0.42 0.41 nan 0.76 0.26 0.95 0.66 0.66 0.49 0.90 1.27 1.33 1.54 1.82 2.28 2.53 2.45 2.05 1.78 2.11 1.89 1.06 1.53 1.59 1.74
0.00 0.00 0.00 0.00 0.01 0.07 0.05 0.14 0.21 0.11 0.31 0.49 0.53 0.54 0.91 1.24 0.84 0.43 0.51 0.62 0.69 0.46 0.41 0.78 1.16 1.12 1.39 1.51 1.55 1.63 1.59 1.70 1.99 1.90 2.01 1.82 1.51 1.20 1.21 0.86 0.96 1.17 1.20
0.01 0.02 0.11 0.16 0.16 0.18 0.31 0.49 nan nan nan nan nan 0.50 0.76 nan nan nan nan nan nan nan 1.04 1.68 2.45 2.38 1.86 1.49 1.38 1.37 0.98 0.89 0.83 0.90 1.06 0.97 1.00 1.09 1.05 0.92 0.71 0.74 1.04
0.07 0.08 0.24 0.31 0.31 0.37 0.45 0.52 0.93 0.66 nan nan nan nan nan nan nan nan nan nan nan nan 0.92 0.95 1.58 1.79 0.96 0.66 0.71 0.64 1.00 0.77 0.33 0.62 0.72 0.82 0.86 0.76 0.88 0.83 0.99 0.83 0.99
0.14 0.17 0.37 0.46 0.57 0.61 0.52 0.54 0.70 0.88 1.22 1.15 nan nan nan nan nan nan nan nan 0.60 nan 0.41 0.58 0.88 0.82 0.40 0.42 0.50 0.67 0.76 0.91 0.96 0.89 1.04 1.27 1.36 1.11 1.26 0.96 0.73 0.99 0.70
0.20 0.34 0.35 0.39 0.48 0.46 0.47 0.47 0.55 0.72 0.78 0.67 0.57 0.37 0.37 nan nan nan nan 0.57 0.67 0.46 0.36 0.35 0.47 0.37 0.40 0.35 0.87 0.99 1.16 1.21 1.35 2.06 1.37 1.45 2.74 0.95 1.10 0.75 0.70 0.78 0.83
0.24 0.10 0.23 0.36 0.44 0.45 0.45 0.52 0.58 0.66 0.70 0.72 0.69 0.60 0.61 0.50 1.56 2.57 1.50 2.09 1.28 0.56 0.52 0.31 0.30 0.32 0.42 0.42 1.00 1.83 1.78 1.71 1.35 1.17 2.08 3.11 2.83 1.27 1.33 1.17 1.26 1.44 0.71
0.29 0.35 0.04 0.23 0.28 0.35 0.40 0.52 0.47 0.56 0.62 0.62 0.79 1.22 0.13 0.40 0.75 0.76 0.66 0.93 0.65 0.49 0.83 0.34 0.43 0.59 0.58 0.67 0.41 0.84 0.42 2.26 0.86 0.97 0.99 1.15 5.34 1.88 0.92 0.84 0.96 0.67 0.58
0.30 0.31 0.34 0.43 0.29 0.42 0.38 0.33 0.49 0.55 0.55 0.58 0.66 0.69 0.66 0.72 0.52 0.50 0.54 1.09 1.88 0.58 0.45 0.55 0.42 0.37 0.36 0.42 0.49 1.79 1.41 2.13 1.68 1.28 1.14 1.20 1.09 1.18 1.01 1.00 1.16 1.19 0.86
0.29 0.43 0.38 0.36 0.29 1.20 0.61 0.38 0.55 0.66 0.53 0.66 0.52 0.76 0.72 0.87 0.95 0.63 0.86 1.50 0.67 0.83 0.66 0.52 1.11 0.64 0.59 0.85 0.73 0.52 0.97 0.88 0.94 1.26 1.68 1.64 1.09 1.25 1.69 1.23 0.93 1.05 1.04
0.36 0.55 0.40 0.56 0.74 0.39 0.75 1.25 0.74 1.50 0.52 0.86 1.80 1.49 1.04 0.85 2.49 1.92 1.94 2.50 1.41 2.02 2.04 2.11 0.70 0.49 0.52 1.96 1.09 0.80 0.54 1.03 0.80 0.86 0.91 1.41 1.12 1.05 1.34 1.17 1.04 0.95 1.05
0.78 1.25 1.15 0.73 0.70 1.34 1.97 1.15 1.44 1.60 1.45 1.91 2.47 1.78 0.64 1.32 1.09 3.07 2.23 1.56 1.48 2.48 1.19 1.61 1.31 0.83 0.99 0.87 0.76 0.31 0.58 1.29 1.31 1.45 1.16 0.67 1.06 1.11 1.13 1.07 1.42 1.14 1.06
0.47 0.53 0.80 0.88 1.01 1.69 1.77 2.61 2.46 1.95 1.98 2.27 2.34 2.62 1.63 1.21 1.07 2.59 1.83 1.69 1.54 1.46 1.33 1.42 1.20 0.88 0.81 0.78 0.51 1.66 1.84 1.70 1.78 1.72 1.75 0.95 1.47 1.47 1.36 1.14 0.99 1.18 0.74
SL_Ratio
nan nan nan nan nan nan nan nan nan nan nan nan nan nan nan nan nan nan nan nan nan nan nan nan nan nan nan nan nan nan nan nan nan 0.0 nan nan nan nan nan nan nan nan nan
nan nan nan nan nan nan nan nan nan nan nan nan nan nan nan nan nan nan nan nan nan nan nan nan nan nan nan nan nan nan nan nan nan 3.5 2.9 2.4 nan nan nan nan nan nan nan
nan nan nan nan nan nan nan nan nan nan nan nan nan nan nan nan nan nan nan nan nan nan nan nan nan nan nan nan nan nan nan nan nan 2.7 2.9 2.6 2.4 nan nan nan nan nan nan
nan nan 2.5 nan nan nan nan nan nan nan nan nan 0.0 0.0 3.3 nan nan nan nan nan nan nan nan nan nan nan nan nan nan nan nan 2.6 2.5 2.6 2.8 2.8 2.8 2.6 2.5 2.7 2.8 2.5 2.6
nan nan nan nan nan nan nan nan nan nan nan nan nan nan nan nan nan nan nan nan nan nan nan nan nan nan nan nan 2.5 2.6 3.0 2.6 2.6 2.6 3.1 3.1 3.2 3.3 3.3 3.0 2.8 2.6 2.7
nan nan nan nan nan nan nan nan nan nan nan nan nan nan nan nan nan nan nan nan nan nan nan nan nan nan nan nan nan nan nan nan 3.3 3.0 3.3 3.6 3.6 3.5 3.1 3.1 3.0 3.1 3.6
2.7 nan nan nan nan nan nan nan nan nan nan nan nan nan nan nan nan nan nan nan nan nan nan nan nan nan nan nan nan nan nan nan nan nan 3.4 3.4 3.8 3.6 3.6 3.6 3.3 3.2 3.3
3.8 nan nan 2.5 2.5 3.3 2.0 3.3 2.9 3.0 3.1 3.3 3.3 nan nan nan nan nan nan nan nan nan nan nan nan nan nan nan nan nan nan nan nan nan nan nan nan nan nan nan 3.3 3.2 3.3
2.6 2.6 2.6 3.0 3.2 2.8 3.2 3.2 3.2 3.1 3.0 3.1 2.9 3.0 nan nan nan nan nan nan nan 3.1 nan nan nan nan nan nan nan 0.0 2.4 2.5 nan nan nan nan nan nan nan 2.6 2.7 3.0 3.3
2.4 2.9 2.6 2.6 3.0 3.5 3.3 3.4 2.9 3.3 3.0 2.9 3.2 3.0 nan 2.5 nan nan nan 3.1 3.2 3.1 3.3 3.3 nan nan nan nan nan 3.3 3.0 2.9 2.8 2.5 2.8 2.5 nan nan nan 2.7 2.6 3.0 3.2
nan 2.7 3.0 2.8 2.8 3.0 3.2 3.3 3.1 3.1 3.5 3.1 3.2 3.1 3.0 3.1 3.1 nan nan 2.8 2.8 3.0 3.1 3.2 2.7 nan nan nan nan 2.7 3.5 2.9 3.2 3.2 3.0 3.1 3.0 3.0 3.0 3.2 3.2 3.1 3.2
nan nan 2.8 2.9 5.0 nan 3.1 3.3 3.2 3.4 4.0 3.6 4.2 3.5 3.1 3.0 nan nan nan nan nan 3.0 3.3 3.0 2.9 nan nan nan 3.0 nan nan 3.0 3.0 3.3 3.4 3.4 3.4 3.5 3.3 3.1 3.4 3.3 3.4
nan nan nan 2.7 nan nan 3.3 3.8 3.6 4.5 4.3 4.8 4.4 4.3 4.0 3.7 3.5 nan nan nan nan 3.2 2.9 2.9 nan nan nan nan nan nan 3.0 3.2 3.4 3.8 3.8 3.7 3.5 3.4 3.3 3.3 3.2 3.0 2.7
3.3 nan nan 4.1 3.9 4.5 3.8 3.7 4.1 4.2 4.5 4.7 4.8 4.7 4.4 4.3 4.1 4.0 3.8 3.5 nan 3.3 3.2 3.3 3.0 3.2 3.0 3.1 3.1 3.3 3.1 3.1 3.3 3.5 3.6 3.4 3.4 3.4 3.6 3.4 3.7 3.7 4.3
nan nan 3.3 nan 3.2 3.5 3.3 3.5 4.1 4.5 4.6 5.0 4.8 4.7 4.5 4.3 4.0 3.5 3.4 3.2 3.1 3.3 3.2 3.4 3.6 3.7 4.0 3.8 3.7 3.6 3.5 3.6 3.9 3.9 3.9 4.1 4.1 3.9 4.0 3.5 3.6 3.9 4.4
5.0 4.3 3.5 4.3 4.6 4.8 4.8 4.8 nan nan nan nan nan 4.6 4.1 nan nan nan nan nan nan nan 3.6 3.8 4.2 4.1 4.4 4.6 4.5 4.4 4.1 4.0 4.1 4.0 3.9 4.0 4.4 4.2 4.1 4.0 3.9 4.1 4.8
5.9 5.8 5.1 4.6 5.1 5.2 5.1 5.4 5.4 4.5 nan nan nan nan nan nan nan nan nan nan nan nan 4.0 4.4 4.6 4.4 4.7 4.9 4.9 4.7 4.9 4.4 4.5 4.1 4.1 4.1 4.2 4.1 4.2 4.3 4.2 4.3 4.8
5.8 3.0 4.9 4.8 4.8 4.8 4.9 4.9 4.7 4.9 4.7 4.5 nan nan nan nan nan nan nan nan 4.4 nan 4.4 4.4 4.5 4.5 4.7 5.1 5.3 5.4 5.1 4.9 4.6 4.7 4.4 4.2 4.2 4.5 4.4 4.5 4.5 4.7 4.8
5.0 4.7 4.8 4.3 3.9 4.3 4.3 4.4 4.6 4.9 4.9 5.1 4.9 4.6 4.2 nan nan nan nan 4.4 4.8 4.5 4.5 4.7 4.5 4.7 4.9 5.1 4.7 4.8 4.6 4.7 4.7 4.9 4.9 4.6 3.9 4.4 4.5 4.3 4.3 3.7 3.8
4.7 3.5 4.4 4.6 4.3 4.3 4.4 4.6 4.8 5.0 4.9 5.0 5.4 5.1 5.2 5.1 5.0 4.7 4.7 4.3 4.5 4.8 4.6 4.7 4.7 4.7 4.7 4.9 4.5 4.3 4.5 4.5 5.0 4.9 4.9 4.3 3.9 4.2 4.8 4.8 4.6 4.9 5.4
4.4 4.4 3.0 4.2 4.4 4.8 4.6 4.7 4.8 5.0 4.8 4.8 4.6 4.1 3.0 4.9 5.0 4.9 5.2 4.8 4.6 4.4 4.4 4.6 4.4 4.4 4.5 4.4 4.8 4.8 5.1 4.2 4.8 5.0 5.1 5.1 3.9 5.7 4.8 4.5 4.5 4.7 5.3
4.5 4.3 4.2 4.8 4.7 4.4 4.5 4.3 4.4 4.5 4.6 4.6 4.5 4.5 3.0 4.4 4.8 4.8 4.7 4.4 4.1 4.1 4.3 4.2 4.5 4.7 4.6 4.7 4.8 4.3 4.6 4.5 4.3 4.7 4.9 5.3 5.3 5.0 5.1 5.1 5.3 5.2 5.4
4.2 4.5 4.7 4.7 4.6 3.1 4.3 4.4 4.5 4.3 4.5 4.3 4.7 4.9 4.8 4.4 4.5 4.9 4.7 4.3 4.4 4.2 4.0 4.3 4.2 4.9 4.4 4.4 4.3 4.5 4.8 5.0 4.6 4.3 5.1 5.0 5.6 5.4 5.0 5.1 5.2 5.5 5.8
4.4 4.2 4.8 4.1 4.0 4.8 4.1 4.0 4.1 3.1 4.4 4.2 4.0 4.4 4.5 4.3 4.0 4.3 4.3 4.1 4.3 4.0 3.9 4.0 4.7 5.1 5.1 4.2 4.3 4.4 4.7 4.5 4.6 4.9 4.4 4.9 5.2 4.2 5.0 5.3 5.3 5.8 5.9
4.0 3.9 3.9 4.5 4.6 3.9 3.8 4.0 3.9 3.8 3.9 3.8 4.0 4.2 4.7 4.3 4.6 4.0 4.2 4.4 4.6 4.2 4.6 4.5 4.6 4.6 4.7 5.1 5.3 5.5 4.3 3.0 4.0 3.0 4.8 5.1 5.0 5.7 5.9 5.5 5.5 5.7 5.9
4.2 4.2 4.2 4.4 4.5 4.0 4.2 4.2 4.0 4.0 4.2 3.9 3.9 4.0 4.3 4.4 4.4 4.0 4.5 4.6 4.8 4.9 4.8 4.7 4.5 4.9 5.0 4.9 5.3 3.1 3.0 3.0 5.1 3.0 5.0 5.2 5.5 5.7 5.5 5.5 5.6 5.7 5.8